Starlink 32478

operational
NORAD ID: 61726 Int'l Des: 2024-196 Owner: SPXS Country: US Constellation: starlink
LEOCIRCULAR

About Starlink 32478

Description loading...

Live Position

Loading 3D Globe...

Upcoming Passes

Altitude History

Altitude vs Time

uPlot chart will show altitude changes over time

Two-Line Element Set

1 61726U 24196V 25304.48343256 -.00000949 00000-0 -19945-4 0 9999
2 61726 53.1600 341.5530 0001222 117.9214 242.1910 15.30182834 57378
Epoch: Oct 31, 2025 • Age: 12 hours

Current Status

Altitude 479.9 km
Velocity 7.63 km/s
Sub-Earth Point -14.89°S, 73.75°W
Launch Date Oct 30, 2024
Age 1 years
Type internet

Technical Details

Classification Payload
Mass 730.00 kg
Dry Mass 700.00 kg
Total Mass 730.00 kg
Length 0.30 m
Diameter 4.10 m
Span 29.00 m
Shape Box + pan
Manufacturer SPXS
Bus Type Starlink V2M
Phase Status In Orbit
Owner/State SPXS/US

Large Constellations

Loading constellations...